{"data":{"norad_id":55942,"intl_designator":"2023-037AE","name":"STARLINK-5917","alt_names":[],"object_type":"PAYLOAD","status":"ACTIVE","operator":null,"country":"US","launch_date":"2023-03-17","launch_site_code":"AFWTR","launch_vehicle":null,"mission":null,"orbit_class":"UNKNOWN","rcs_meters":null,"size_class":null,"mass_kg":null,"dimensions":null,"purposes":["comms"],"wikipedia_slug":null,"has_3d_model":false,"image_url":null,"decayed_at":null,"tle_current":{"epoch":"2026-09-20T22:00:03.000096Z","epoch_age_seconds":70224,"freshness":"FRESH","line1":"1 55942U 23037AE  26263.91670139  .00032809  00000+0  24849-2 0  9995","line2":"2 55942  70.0011 152.0452 0002811 289.8883 217.4283 15.02142635  5767","mean_motion":15.02142635,"eccentricity":0.0002811,"inclination_deg":70.0011,"raan_deg":152.0452,"arg_perigee_deg":289.8883,"mean_anomaly_deg":217.4283,"bstar":0.0024849,"rev_number":576,"period_min":95.863066958352,"perigee_km":558.34018444613,"apogee_km":562.2409684296,"semimajor_km":6938.4275764379,"source":"CELESTRAK","updated_at":"2026-09-21T09:00:33.328008Z"}}}